Дата Пункты Температура Давл., мм. Влажн., % Ветер Погодные явления
Воздуха Воды Направл. Скорость
23.08.15 02:00 Одесса 23.0 22.0 757 57 З 1 15 часов
23.08.15 11:00 Одесса 24.0 22.0 757 54 С 0 12 часов
23.08.15 08:00 Одесса 22.0 22.0 757 53 С 2 09 часов
23.08.15 05:00 Одесса 19.0 22.0 757 60 С-З 1 06 часов
23.08.15 02:00 Одесса 20.0 22.0 757 57 С-З 2 03 часа
22.08.15 08:00 Одесса 21.0 22.0 758 52 З 1 21 час
22.08.15 05:00 Одесса 24.0 22.0 759 49 С 1 18 часов
22.08.15 02:00 Одесса 24.0 22.0 760 44 Ю-В 2 15 часов
22.08.15 11:00 Одесса 23.0 22.0 761 49 С-В 4 12 часов
22.08.15 08:00 Одесса 19.0 22.0 762 63 С 2 09 часов
22.08.15 05:00 Одесса 15.0 22.0 762 80 С 2 06 часов
22.08.15 02:00 Одесса 19.0 22.0 762 71 С-В 6 03 часа
21.08.15 08:00 Одесса 18.0 22.0 762 58 С-В 1 21 час
21.08.15 05:00 Одесса 23.0 22.0 762 46 Ю-В 2 18 часов
21.08.15 02:00 Одесса 24.0 22.0 763 49 В 4 15 часов
21.08.15 11:00 Одесса 22.0 23.0 763 47 С-В 6 12 часов
21.08.15 08:00 Одесса 18.0 23.0 763 66 С 4 09 часов
21.08.15 05:00 Одесса 18.0 23.0 763 69 С 4 06 часов
21.08.15 02:00 Одесса 20.0 23.0 763 57 С-В 7 03 часа
20.08.15 08:00 Одесса 20.0 23.0 763 61 С-В 7 21 час
Количество строк
281 282 283 284 285 286 287 288 289 290
Page 282 of 407